Retour au catalogue

BREEZE-KM R/B

ActifPO
NORAD 38737·ROCKET BODY·🇷🇺 Russia

Lancé Jul 28, 2012 depuis Plesetsk Cosmodrome

Loading…

Prochains Passages (prochaines 24 heures)

TLE

FraisSource: Space-Track

Époque: Sep 14, 2026, 22:25 UTC

1 38737U 12041E   26257.93437252  .00000021  00000-0  33298-4 0  9995
2 38737  82.4783 134.5810 0226220  46.4549 315.5098 12.81849470661299

Suivez BREEZE-KM R/B en temps réel avec AllMySat

Download on the App Store